RH
23 22 23 24 24 23 22 21 19 18 16 14 12 11 11 12 11 9 9 10 10 9 10 10 8 7 6 6 6 6 5 5 4 5 4 3 4 7 15 36 42 31 40 61 65 63 65 62 57 55 57 64 69 71 70 66 62 61 60 62 60 55 49 47 49 53 57 60 62 64 66 63 54 46 39 33 31 29 30 33 34 32 27 20 17 17 22
25 24 24 25 25 24 23 21 20 20 18 16 14 13 13 13 13 12 11 11 11 10 11 11 10 9 8 7 7 6 6 6 5 5 5 4 5 5 14 35 42 32 38 58 68 70 67 60 56 52 52 61 68 70 69 67 64 61 60 61 62 60 56 53 55 57 59 60 62 62 62 60 56 50 41 37 35 32 30 28 25 22 19 17 16 16 18
28 28 25 25 25 24 23 22 21 20 19 18 16 15 15 15 14 14 13 12 12 12 12 12 12 11 9 8 8 7 6 6 6 6 6 5 5 5 13 27 33 31 37 49 62 69 61 51 51 46 40 51 68 74 73 70 67 65 66 68 70 70 65 60 59 59 59 61 62 62 61 60 58 53 45 40 38 36 34 31 28 25 20 16 16 16 17
30 33 30 25 24 23 22 22 22 22 21 19 18 18 17 16 14 14 13 11 10 12 14 14 14 13 12 10 10 8 7 7 6 7 6 6 6 5 8 16 22 23 29 39 54 62 54 47 47 40 31 36 52 65 71 72 70 69 71 74 76 77 74 69 66 62 61 61 61 61 61 58 57 55 50 45 41 38 35 32 30 30 27 22 19 17 18
33 38 35 28 25 23 21 21 25 25 21 19 19 19 18 17 16 14 12 10 11 14 16 16 16 15 14 13 12 10 9 8 7 7 7 7 7 5 5 9 14 17 22 34 49 56 55 55 54 43 33 29 33 46 60 69 70 70 73 76 76 77 78 76 73 69 67 65 63 62 61 57 56 56 53 51 48 44 40 36 31 29 28 26 22 20 20
39 44 40 32 28 22 18 22 27 24 19 19 20 20 19 19 17 15 13 12 13 16 17 17 17 17 16 15 14 13 12 10 8 7 7 7 6 6 6 7 9 12 16 27 44 55 60 63 57 46 41 42 44 49 55 61 67 69 70 72 72 74 77 77 74 72 71 70 69 66 63 61 61 59 57 57 55 50 45 41 35 29 27 27 25 23 22
42 48 47 40 29 18 16 23 25 22 22 25 23 19 19 19 17 17 17 15 14 16 18 19 19 19 18 17 16 15 14 12 11 8 7 7 7 7 8 7 7 11 14 21 34 50 62 67 61 53 56 61 59 53 49 52 57 59 59 61 64 68 70 71 70 70 68 69 69 69 67 66 65 63 62 61 58 53 49 46 43 35 29 28 27 25 24
46 48 53 45 25 15 21 24 21 23 27 27 24 19 16 17 19 20 20 18 16 16 18 20 20 20 19 18 16 16 16 15 13 11 8 8 8 8 9 9 10 11 14 19 25 34 48 58 58 58 64 66 60 55 53 53 51 49 52 58 64 68 69 68 68 69 68 69 70 72 73 71 67 63 62 62 59 54 51 52 50 41 34 29 27 26 25
53 50 50 42 26 20 26 25 20 23 28 27 24 19 15 17 21 21 21 20 19 18 18 20 21 20 19 19 16 16 17 17 16 13 11 9 9 9 9 10 11 11 13 17 22 25 33 41 49 59 67 65 56 51 50 51 50 50 52 57 61 65 69 71 72 73 73 72 72 75 79 79 75 68 61 58 58 56 55 58 56 47 39 33 29 29 28
62 57 52 45 36 28 27 26 23 24 26 27 26 20 17 21 22 20 21 22 21 21 20 19 21 21 20 19 18 17 17 17 18 16 14 12 11 10 9 10 11 12 12 14 20 25 31 38 47 56 61 58 52 45 40 42 47 47 49 55 60 65 73 77 78 77 77 76 76 76 79 81 82 79 67 58 58 60 59 62 62 55 45 37 33 31 30
73 65 55 47 38 28 25 29 28 24 23 26 29 25 21 23 23 20 21 24 24 24 24 22 22 22 21 20 19 19 19 18 18 18 17 15 14 12 11 11 12 14 13 14 18 21 26 34 39 40 41 42 45 48 48 47 43 39 44 55 63 72 83 86 83 80 79 78 78 76 76 77 82 84 76 63 60 64 64 66 68 62 51 43 38 33 31
77 67 55 47 39 30 30 34 33 27 23 22 29 31 23 21 25 23 22 25 28 28 27 25 24 22 22 23 22 21 22 20 19 19 19 18 16 15 14 13 14 19 20 17 17 17 18 23 26 26 27 28 32 41 48 47 39 35 42 53 60 70 81 83 78 76 74 74 76 76 75 77 81 84 80 69 63 65 67 68 70 66 58 52 45 37 34
81 78 65 51 43 37 39 45 43 35 28 24 28 31 24 22 28 28 26 28 31 31 30 28 27 27 29 30 28 25 25 25 23 22 20 20 19 17 16 14 16 25 32 28 21 18 19 21 24 27 27 27 29 34 37 36 37 41 49 56 57 60 65 66 64 65 67 70 75 77 77 79 80 82 80 72 65 66 69 71 72 69 64 58 51 44 38
84 84 76 64 54 46 47 54 51 43 39 33 27 26 27 30 33 33 33 33 32 33 35 32 31 33 35 35 33 31 30 30 29 27 24 22 21 19 18 16 14 20 32 34 28 24 24 26 32 36 36 36 38 38 34 32 37 46 53 58 57 55 57 59 58 57 60 63 67 71 76 77 76 77 79 74 66 65 67 70 73 72 68 64 59 53 45
89 86 85 75 55 43 50 62 60 54 49 38 25 25 32 37 39 38 39 39 37 38 40 38 37 37 36 36 37 38 38 36 35 33 29 26 24 22 19 18 16 15 22 28 29 28 27 27 30 34 37 40 42 39 37 39 45 49 51 51 49 48 50 55 55 52 52 52 51 54 60 62 60 62 71 75 72 68 68 70 73 75 74 72 68 61 52
93 91 85 68 47 45 65 76 71 63 55 41 31 34 39 42 45 46 44 42 43 44 44 43 43 41 39 39 42 44 45 44 41 38 35 30 27 24 21 18 17 16 17 23 28 29 29 28 28 30 34 38 39 38 40 44 47 47 45 44 43 42 42 44 44 43 42 40 38 38 42 44 44 46 53 61 65 67 70 73 76 77 76 76 75 70 61
80 92 87 73 67 76 86 83 76 70 61 50 44 45 49 50 52 54 52 48 47 47 48 47 46 46 46 45 46 49 50 50 48 44 40 36 30 27 25 21 18 16 16 19 24 28 31 31 31 31 32 34 37 40 41 43 43 44 45 44 41 37 35 35 38 41 43 45 45 45 46 45 46 49 54 56 56 56 58 65 72 73 71 71 72 70 63
50 77 90 87 84 90 90 84 82 77 66 58 53 51 54 56 54 56 59 56 51 48 48 48 47 46 46 46 47 50 50 51 53 50 45 41 36 32 29 25 22 20 17 16 19 23 27 29 30 30 29 29 33 37 38 38 39 39 38 36 32 29 32 42 50 52 53 54 54 56 58 57 55 60 65 63 59 57 58 64 72 73 70 68 69 68 64
30 52 82 94 87 88 93 90 82 71 61 61 61 57 58 58 56 58 62 61 59 54 48 48 48 47 46 45 44 47 49 50 53 54 51 47 42 38 35 32 27 24 20 18 19 20 22 23 24 23 23 23 26 29 31 31 31 29 28 28 29 30 37 47 51 49 47 47 48 51 57 60 62 67 69 67 66 67 67 66 67 66 64 65 65 66 69
30 36 66 91 90 89 96 90 74 60 55 57 57 54 57 60 57 59 63 63 64 62 54 50 49 47 47 46 43 43 48 52 55 57 56 52 48 44 40 36 33 29 26 24 24 24 24 24 23 23 25 26 27 28 29 29 29 28 28 29 32 35 39 43 44 43 43 44 43 44 47 49 51 55 60 61 61 62 62 62 62 62 67 73 70 66 70
28 27 48 77 86 89 93 84 67 56 52 53 50 49 59 67 61 57 63 64 63 64 61 57 54 50 47 46 44 42 44 48 53 58 58 55 53 49 44 39 36 34 31 29 27 28 28 27 28 29 31 31 31 31 33 34 34 34 34 35 36 37 39 40 42 44 47 47 47 47 47 47 45 43 45 48 46 44 47 51 53 56 65 75 77 74 75
41 33 39 60 75 86 93 82 64 57 56 55 53 51 60 70 65 59 63 65 62 64 64 62 61 58 51 46 44 41 40 41 45 52 57 57 54 51 47 43 39 37 34 31 28 28 28 28 30 31 32 33 33 32 33 34 35 35 36 36 37 37 38 40 42 43 44 45 45 45 45 45 43 40 40 42 42 43 46 47 47 48 52 59 67 72 77
69 61 51 58 67 80 94 86 66 60 64 65 64 59 59 67 74 75 74 71 68 67 67 65 67 66 58 52 46 40 40 44 47 50 57 58 53 48 47 47 45 41 37 34 31 30 30 31 31 32 33 34 33 33 33 34 34 34 34 33 33 32 32 32 33 33 33 34 35 36 36 37 38 38 39 40 42 45 48 48 48 48 48 51 57 62 69
71 71 59 65 72 76 88 86 68 63 70 73 74 69 62 69 86 95 91 83 75 71 70 72 76 75 67 59 53 48 53 61 59 55 57 57 52 50 50 51 50 46 42 39 36 33 33 33 33 32 33 33 34 34 35 35 35 35 34 33 32 31 30 29 28 27 26 25 25 27 29 31 35 38 40 41 43 44 47 48 49 48 47 50 53 57 64
61 57 48 58 70 77 85 81 67 66 72 74 78 78 71 71 84 97 97 87 74 72 77 81 84 81 69 61 64 73 80 78 65 56 57 57 56 57 57 56 55 53 49 46 41 37 36 35 34 34 34 35 35 35 35 36 37 35 33 31 31 32 32 31 29 27 25 24 24 25 26 26 29 31 34 37 41 43 46 49 51 51 51 50 51 53 57
63 47 39 45 57 73 85 78 65 70 82 83 82 81 77 75 82 92 98 91 77 77 87 90 88 81 69 63 75 92 95 79 60 53 57 61 62 63 62 60 58 56 54 52 47 43 41 38 35 35 37 37 36 36 36 37 37 35 33 31 31 33 34 34 32 29 27 26 25 25 23 21 20 20 21 25 29 34 39 43 46 48 48 49 51 53 54
78 54 47 51 55 65 80 80 71 77 92 97 90 83 80 82 87 91 96 94 85 82 90 94 91 84 75 74 86 94 87 69 55 53 58 62 63 64 63 61 59 58 57 56 52 47 44 41 37 36 37 39 39 38 36 36 36 36 34 32 32 35 36 34 31 28 26 26 25 23 21 19 18 18 20 21 23 25 28 34 41 47 47 48 50 52 55
92 67 58 66 68 66 73 78 74 78 93 101 97 91 89 92 95 94 96 97 93 89 92 98 96 89 83 83 86 85 76 64 56 55 57 59 61 63 61 59 59 58 56 55 52 47 44 40 36 34 37 41 41 40 39 38 37 35 34 34 34 34 30 28 26 25 24 23 20 17 16 16 18 20 22 23 24 25 30 41 52 56 55 57 58 55 55
85 78 78 88 86 78 81 83 74 75 93 102 98 95 98 100 100 99 100 100 93 87 87 91 90 86 84 83 80 76 71 65 60 58 59 59 59 58 56 55 56 55 53 51 49 46 43 40 37 38 41 43 43 43 42 40 38 37 37 36 33 28 25 24 21 18 16 14 15 17 20 23 27 31 35 39 44 51 63 77 83 74 64 64 69 69 64
72 75 86 97 91 83 90 93 81 77 89 99 98 98 100 101 101 101 100 99 94 86 79 78 80 80 76 75 80 81 74 66 62 61 59 57 54 53 52 52 52 51 48 46 44 43 42 41 41 43 43 42 43 44 43 40 40 39 37 33 29 26 23 19 12 10 12 16 23 31 37 44 51 56 58 61 66 71 79 90 95 91 80 71 71 72 67
73 61 67 83 89 85 85 88 89 89 89 90 97 102 100 98 101 102 96 91 91 88 80 78 83 82 73 72 82 83 71 60 57 56 55 55 56 55 52 46 42 39 38 40 42 42 41 41 42 43 44 45 45 44 42 40 39 36 32 31 28 22 16 12 11 14 21 28 35 43 51 62 71 74 73 75 76 75 75 76 78 81 79 73 72 76 72
79 66 58 65 79 89 88 84 88 94 90 83 88 97 98 97 99 100 96 93 94 94 86 79 78 78 72 71 76 74 66 61 58 57 60 63 62 58 50 40 33 32 31 32 36 38 39 41 43 43 45 49 49 44 40 37 33 30 30 27 21 16 17 20 22 27 35 43 51 56 61 70 77 78 79 84 85 82 86 91 91 86 81 80 90 102 96
71 74 69 63 67 82 91 89 86 88 88 82 80 85 91 93 91 91 95 98 100 99 94 84 76 74 75 77 78 74 71 67 60 57 62 63 55 47 40 32 28 27 25 24 28 32 35 41 44 44 48 53 51 44 38 34 31 30 28 21 17 23 32 33 33 41 54 62 65 64 64 71 80 81 80 82 82 76 77 88 97 98 91 85 92 103 99
51 55 65 72 72 73 79 81 79 76 78 79 77 76 81 86 85 83 90 97 99 99 97 91 84 80 79 80 80 75 69 62 55 53 56 51 40 33 29 24 21 20 19 22 28 33 37 42 46 47 50 54 51 43 37 33 31 29 24 17 17 24 33 35 40 53 65 68 67 68 69 75 83 84 79 77 78 75 72 74 80 85 84 81 80 84 87
55 44 49 63 71 74 80 85 83 74 70 74 77 73 73 76 78 81 88 95 95 97 99 96 90 85 83 82 81 77 68 59 52 48 43 34 26 23 24 26 29 31 31 32 36 41 46 51 52 50 50 51 47 41 36 34 31 26 21 16 15 19 29 40 49 57 65 69 70 72 74 76 77 76 74 73 73 72 73 77 82 85 88 90 89 89 92
69 55 48 49 51 62 79 90 86 77 72 73 75 72 69 70 74 81 89 90 84 83 91 95 89 83 81 81 78 71 60 49 40 34 28 22 20 24 29 37 45 52 55 55 54 55 60 62 60 56 53 49 44 40 38 37 35 31 25 20 20 25 37 48 56 64 73 78 78 76 78 80 79 75 75 75 71 64 61 65 69 73 76 78 79 81 85
77 68 61 55 50 59 76 84 82 79 79 80 79 76 73 73 76 80 85 83 73 68 79 91 89 82 78 74 66 56 45 36 31 28 26 26 29 34 39 46 54 64 70 70 67 65 67 67 64 59 54 49 45 43 42 40 39 35 29 25 29 38 48 55 64 76 84 85 81 80 81 82 81 78 79 83 83 79 75 70 65 66 70 73 75 77 79
96 90 85 83 81 86 92 91 88 89 89 84 80 81 85 88 89 87 83 76 64 57 62 73 75 72 67 59 49 41 36 33 32 33 36 39 44 47 50 55 62 68 68 65 62 60 60 61 60 58 55 51 47 43 39 36 34 32 30 32 40 51 59 63 71 83 92 89 82 78 77 77 75 75 76 78 80 84 89 86 80 79 82 86 89 92 91
100 96 93 90 89 94 100 99 95 94 91 82 79 86 94 98 97 92 81 68 59 58 64 67 65 61 57 52 48 48 50 49 49 49 51 53 55 56 57 59 62 61 56 52 50 49 48 48 48 49 48 45 40 35 33 33 33 34 39 48 56 62 67 71 75 85 95 97 90 84 83 82 76 72 75 77 78 83 91 95 94 92 91 90 91 94 94
99 97 94 86 80 86 97 100 96 95 94 92 92 96 98 95 91 84 73 63 61 70 81 83 78 73 71 70 70 72 70 66 62 59 58 56 54 52 51 51 50 47 44 41 40 39 38 37 36 35 33 30 28 30 36 42 45 48 56 67 72 73 73 76 78 81 87 93 93 93 95 92 84 79 82 86 87 89 93 96 98 98 97 93 93 95 96
99 99 99 95 91 92 98 99 98 98 99 99 99 99 99 97 91 83 76 73 75 80 84 85 82 79 77 77 77 75 70 66 62 59 57 54 51 48 47 48 49 47 45 42 41 40 40 40 41 42 42 40 40 45 52 57 59 60 64 70 75 76 75 76 77 79 85 92 96 97 99 99 96 94 93 94 94 96 97 97 98 99 100 99 99 99 99
100 99 99 99 100 100 100 99 98 98 99 100 99 98 98 97 94 90 89 91 93 92 90 89 85 81 78 77 74 69 65 61 58 56 54 53 52 51 52 54 55 55 55 54 53 52 52 51 51 53 56 58 60 64 69 71 71 70 69 69 70 70 71 71 73 78 86 92 96 97 98 98 99 99 99 99 99 99 99 100 100 99 99 100 100 99 99
100 100 100 99 98 99 100 100 99 98 99 101 101 97 93 92 93 94 96 97 96 97 98 97 93 87 83 78 72 68 65 61 57 55 54 55 56 58 58 59 61 63 64 64 65 64 64 64 62 60 60 62 64 67 70 73 74 73 73 73 72 72 72 73 75 79 83 86 91 94 97 98 99 99 99 100 100 99 99 100 100 96 95 97 98 97 98
98 100 101 100 98 97 98 100 100 99 100 102 102 100 97 96 97 98 99 99 99 100 100 98 94 88 81 73 67 62 59 57 54 53 52 53 56 59 61 62 63 65 66 67 68 69 70 71 73 72 71 70 71 72 73 75 77 77 76 76 76 76 76 78 81 83 85 88 93 96 98 99 100 98 96 98 100 101 100 100 99 97 96 97 98 98 99
99 99 99 100 99 99 99 99 99 99 100 101 102 101 99 99 99 100 100 100 100 99 98 95 91 85 78 72 67 62 59 57 57 57 56 57 59 62 64 66 67 68 69 70 72 73 74 74 76 78 79 78 78 79 80 82 84 85 85 84 83 83 83 86 88 89 88 89 92 95 97 100 100 98 96 97 99 99 98 99 99 99 98 98 99 99 100
99 100 99 99 99 99 99 99 99 99 99 100 101 100 100 100 100 100 101 100 100 99 97 94 89 83 78 74 72 69 67 67 68 67 66 67 66 67 68 70 72 74 76 77 77 78 79 79 80 82 83 82 81 80 81 82 83 85 86 87 86 86 87 91 95 97 96 94 92 92 94 98 100 99 99 99 98 98 99 100 100 99 99 99 99 100 100
93 94 95 96 97 99 99 100 100 100 100 100 100 100 100 100 100 100 99 97 95 93 91 88 84 81 79 77 76 76 76 76 77 77 76 76 76 75 76 77 78 80 82 83 82 81 81 80 79 79 78 78 76 76 75 75 74 74 74 75 74 74 75 78 84 90 95 98 99 98 99 100 100 99 99 99 98 97 99 100 100 100 101 100 99 100 100
85 87 88 89 90 91 94 96 98 99 99 99 99 98 98 98 97 96 94 92 89 88 87 87 85 84 83 81 80 80 79 78 78 78 77 77 78 78 78 77 78 80 81 82 82 83 83 82 81 79 76 75 73 71 69 67 64 62 60 59 58 57 57 58 60 64 69 76 82 87 91 95 97 99 101 102 102 101 100 100 99 98 99 99 100 100 100
85 85 85 84 83 83 84 85 86 88 88 88 88 88 88 88 88 87 85 84 83 82 82 81 80 80 79 77 76 75 74 73 73 72 71 70 71 71 70 69 69 69 69 69 70 71 72 73 74 74 73 72 72 71 70 68 66 64 62 60 58 55 53 51 49 49 49 49 51 54 57 61 66 71 76 82 88 93 96 98 99 99 99 99 99 99 98
74 75 75 74 74 74 74 74 74 74 75 75 75 74 74 74 74 73 72 72 71 70 69 68 68 67 66 65 65 64 63 63 62 62 62 62 61 61 61 62 61 61 62 62 62 62 62 63 63 63 62 62 62 62 62 62 62 62 61 61 61 60 59 58 57 55 53 51 49 47 45 44 43 43 44 46 50 54 59 63 67 71 73 75 77 77 78
55 56 56 56 56 56 56 56 57 57 58 58 59 59 60 60 60 59 59 58 58 57 56 56 55 54 53 53 52 51 51 50 50 49 49 49 48 48 48 48 47 47 47 47 48 49 50 51 52 53 54 54 54 55 55 54 54 53 53 52 52 52 52 53 53 53 53 53 53 53 52 51 50 49 47 46 44 43 42 42 42 43 44 46 47 49 50
44 44 44 44 44 44 43 44 44 44 44 44 44 44 45 45 46 46 46 46 45 45 44 43 43 43 43 43 43 43 42 42 41 40 40 39 38 38 37 36 36 35 34 33 32 32 32 33 34 36 37 39 41 43 44 45 46 47 47 48 48 47 47 46 46 45 45 44 44 45 45 45 46 46 47 47 48 48 47 47 46 45 44 44 43 41 41
Wind_Speed
64 62 61 61 61 61 61 60 59 57 56 55 55 55 53 51 52 48 37 35 38 35 31 26 20 19 20 20 22 24 22 20 18 18 18 20 23 27 28 28 28 26 25 25 23 21 19 18 17 17 18 19 20 21 21 21 20 20 21 21 19 18 18 16 13 13 14 14 14 16 18 19 19 19 20 21 22 23 24 25 28 28 27 27 27 27 27
67 65 64 63 62 62 62 60 60 58 57 57 56 55 53 52 53 48 40 41 43 37 34 29 22 22 24 24 25 26 24 23 22 22 21 21 23 26 27 29 28 25 25 26 25 24 24 22 19 17 16 18 19 21 21 21 20 18 19 18 17 17 16 15 14 15 17 16 16 17 19 20 21 21 20 21 23 24 24 25 27 29 30 28 27 27 27
70 68 67 66 64 64 63 61 60 59 58 58 57 56 55 55 54 50 45 47 46 39 34 30 24 23 26 27 28 27 27 27 26 24 24 24 24 25 27 29 29 27 27 28 28 28 27 24 21 18 17 18 21 23 23 23 21 19 18 17 16 15 14 13 14 16 17 18 19 19 20 21 23 24 23 23 23 25 25 25 26 28 30 30 28 28 28
72 70 70 69 67 66 64 61 59 59 59 59 58 58 58 57 56 52 49 51 47 37 32 30 27 26 26 27 28 29 30 31 30 28 27 26 26 25 26 28 29 28 28 29 29 30 28 26 24 21 19 20 22 25 25 25 23 21 20 18 16 15 15 16 16 15 16 18 19 20 22 23 24 26 27 26 24 25 25 26 27 29 30 30 30 30 30
75 73 73 71 69 68 65 61 60 60 60 59 59 59 59 58 57 55 54 51 43 34 31 32 30 28 29 29 30 31 32 33 34 32 29 28 28 27 27 28 28 27 27 29 30 29 28 27 26 23 21 21 21 22 24 26 26 24 22 21 19 18 19 20 18 16 17 18 19 20 22 24 26 28 29 28 27 26 26 26 27 28 29 30 31 32 31
78 75 74 74 73 70 66 64 62 61 60 61 61 60 59 58 57 56 54 50 43 37 36 36 32 30 31 33 33 33 34 35 36 34 32 31 31 30 29 29 27 26 27 28 30 30 29 29 27 23 21 20 20 21 24 26 28 28 27 25 23 21 22 23 21 20 20 19 19 20 23 26 28 29 29 29 29 28 28 28 26 26 28 30 31 32 32
81 78 76 77 76 71 68 67 65 62 62 63 62 61 59 58 57 56 54 52 47 43 40 38 35 34 36 37 37 35 36 36 36 36 35 33 32 32 31 30 28 26 27 28 29 30 30 30 28 25 22 22 23 24 25 26 28 29 27 26 25 24 25 25 24 23 22 21 20 21 24 27 30 31 30 29 30 29 29 29 27 26 28 29 30 32 33
83 80 79 79 77 73 71 70 68 66 64 62 62 61 59 57 58 58 57 55 51 47 43 40 38 38 40 41 40 38 37 36 36 36 37 36 34 33 32 31 30 28 28 29 29 29 30 32 32 29 27 27 26 26 26 28 29 27 24 24 26 27 28 27 27 26 24 23 22 22 24 25 28 31 30 29 29 29 29 29 28 27 27 27 28 31 34
85 83 82 82 79 76 74 71 71 70 66 62 62 63 60 57 59 60 58 56 53 51 47 44 42 43 43 43 43 42 40 37 36 36 37 38 36 34 33 33 32 30 30 30 31 31 31 33 34 32 31 30 28 27 27 28 29 26 24 25 26 28 30 29 29 28 27 26 26 26 27 27 27 28 29 28 29 30 30 30 29 28 27 27 29 31 34
86 85 84 84 82 79 76 73 73 73 68 63 63 64 61 58 58 59 58 55 53 52 50 48 46 46 46 46 45 44 42 39 37 37 38 38 37 36 35 34 34 34 32 31 32 33 33 34 35 34 33 32 31 29 28 28 29 28 27 27 27 30 32 32 30 29 29 30 31 30 31 32 30 29 29 29 29 31 31 31 31 30 29 29 30 31 33
86 87 87 86 85 82 78 76 75 75 72 67 64 64 63 60 58 59 57 55 53 53 52 51 49 49 49 47 46 45 44 42 39 38 38 38 38 37 37 36 36 37 35 34 35 35 36 37 37 36 34 33 33 33 32 31 31 30 29 29 29 31 32 31 32 32 33 35 34 33 34 36 34 31 30 29 31 32 33 33 33 32 31 30 31 32 33
87 88 89 88 87 83 79 77 76 76 75 71 66 65 65 61 59 59 57 55 53 53 53 53 52 50 48 46 46 46 45 44 42 40 39 39 38 38 38 38 38 39 39 38 38 38 38 39 38 38 37 35 34 34 35 35 34 33 32 30 30 30 32 33 36 37 38 39 38 37 37 38 38 35 32 31 33 34 35 36 35 35 33 31 31 33 34
87 87 89 89 88 84 80 77 76 76 77 76 71 68 65 61 58 58 57 55 53 52 52 53 52 50 47 45 46 47 46 45 44 42 41 40 40 40 40 39 40 41 41 41 40 40 40 39 38 39 39 38 36 36 37 37 36 35 34 33 32 34 36 38 40 41 41 41 41 40 39 38 39 36 33 33 35 37 38 39 38 37 36 34 33 34 35
86 86 88 89 88 85 80 77 76 76 76 77 75 70 65 61 59 57 56 55 54 52 51 52 51 49 47 46 46 47 47 46 44 43 42 41 42 43 43 42 42 43 43 44 44 42 41 41 41 41 42 41 41 40 40 38 37 36 36 36 37 37 39 41 42 41 40 42 43 42 40 40 40 37 35 36 37 39 41 41 40 39 39 37 36 36 37
87 86 88 90 90 86 80 76 75 75 76 76 76 72 66 61 59 57 55 53 52 51 50 50 50 49 48 47 46 45 45 45 44 42 41 41 42 44 45 45 45 45 46 47 47 46 44 43 44 44 44 44 44 44 43 42 40 39 39 40 40 40 40 41 42 41 40 42 44 45 43 43 43 40 37 39 40 41 43 43 41 41 41 41 40 39 40
88 87 89 93 92 84 76 71 71 73 76 75 74 72 68 62 57 56 55 53 50 49 50 50 50 48 47 47 47 46 45 44 43 42 41 41 43 44 45 46 46 46 47 48 49 48 47 46 46 45 45 46 46 46 45 45 45 44 44 43 44 44 43 44 45 44 43 43 46 47 45 45 45 44 42 41 42 43 44 44 42 43 46 46 44 42 43
89 89 89 91 87 76 68 67 68 70 72 74 73 70 67 62 57 54 53 53 51 50 51 52 52 51 49 48 48 47 45 44 44 44 43 43 43 44 45 46 47 47 48 50 50 50 49 49 48 47 45 45 46 46 47 47 47 48 48 48 48 48 47 45 45 45 44 44 45 46 47 47 48 48 47 46 45 45 44 44 43 44 47 49 47 45 45
86 87 86 86 82 72 65 66 67 67 68 71 70 69 67 64 59 56 54 53 53 53 53 54 55 54 53 50 49 49 47 46 46 46 46 45 44 44 44 45 45 47 48 49 50 51 51 51 50 49 48 47 48 49 49 50 50 50 50 50 48 46 44 43 42 43 44 45 45 47 49 49 49 50 50 50 50 48 46 46 45 45 48 51 51 50 49
77 80 81 83 81 73 65 62 65 67 67 67 65 65 67 66 62 58 57 55 55 56 56 56 57 57 56 54 52 51 50 48 47 47 47 46 46 45 44 43 43 44 44 46 48 50 51 51 50 49 48 47 47 48 48 48 48 47 46 45 44 42 41 41 42 43 45 45 46 47 50 51 51 52 52 52 52 50 49 49 50 50 51 52 52 54 52
70 74 76 77 79 75 66 62 66 68 67 65 63 60 62 65 63 59 57 57 57 57 57 58 58 59 59 58 56 54 52 50 49 47 47 46 46 45 43 42 41 41 42 43 46 47 47 46 44 43 42 42 43 43 44 44 44 44 43 43 43 43 44 44 46 47 48 49 49 49 50 52 53 54 55 55 55 53 53 53 54 53 54 54 54 55 55
65 70 71 72 76 77 70 65 67 68 64 63 63 58 56 58 60 59 58 59 61 60 59 58 59 60 61 60 59 57 55 53 52 50 48 47 46 44 43 43 43 42 42 42 45 45 43 42 41 40 41 41 42 42 43 44 45 45 46 46 47 47 48 49 50 51 51 51 52 53 53 55 56 57 57 58 59 58 57 57 57 56 57 57 57 57 58
59 62 65 65 68 73 73 67 66 66 63 62 62 60 56 52 52 55 59 63 66 66 61 59 60 61 62 62 60 59 58 59 58 56 53 51 48 46 46 46 46 45 43 42 43 44 43 43 43 43 43 44 44 45 46 46 47 47 48 48 49 50 51 52 53 53 53 53 54 54 56 58 59 60 60 61 62 62 61 61 60 60 60 61 61 61 62
56 55 58 58 59 67 72 68 64 64 64 63 64 64 60 53 50 54 61 67 68 67 63 62 65 66 64 62 61 62 64 64 63 60 57 54 52 52 52 50 49 48 46 43 42 43 44 45 46 47 47 48 48 49 49 49 49 49 50 50 50 51 52 53 54 54 53 53 54 57 59 61 62 63 64 64 65 65 65 65 65 64 63 64 64 64 62
56 54 55 54 54 63 71 69 65 64 63 62 63 64 61 57 52 52 59 67 68 66 64 65 67 69 66 62 63 67 67 65 63 61 58 56 55 56 56 54 52 50 48 45 43 43 44 45 47 48 49 50 52 53 53 52 51 51 51 52 52 53 54 54 55 54 52 53 55 58 60 62 64 66 67 67 68 68 68 68 68 67 66 65 65 65 64
51 53 57 55 53 60 71 72 69 67 65 63 64 62 61 62 55 45 50 62 66 65 66 67 65 65 63 60 62 67 67 65 63 61 59 59 58 58 57 56 54 52 51 48 46 46 45 45 46 48 50 52 54 56 57 56 55 54 53 53 53 54 55 55 55 54 54 55 57 59 61 63 65 67 68 69 70 70 70 70 71 71 69 68 67 67 66
45 50 55 56 54 59 70 73 70 69 66 65 66 64 62 65 59 43 44 59 65 62 63 63 61 60 60 60 61 63 63 64 64 63 62 61 61 59 58 57 56 55 53 52 51 50 49 48 49 50 52 54 56 58 59 58 57 55 54 54 54 54 53 53 53 55 57 59 60 60 61 62 64 67 70 71 72 72 72 73 74 74 73 72 72 72 70
41 46 51 54 54 59 70 74 71 69 63 61 66 69 65 64 58 42 37 49 59 60 59 60 59 58 58 58 58 60 60 61 62 61 61 62 62 60 59 57 56 56 56 56 56 56 54 53 53 54 56 58 58 59 60 59 57 56 55 55 54 53 52 52 53 56 57 58 59 60 61 63 66 69 71 72 72 72 74 76 79 81 79 76 76 74 72
36 43 50 52 51 56 69 76 74 70 62 56 61 67 64 60 56 42 30 33 43 50 54 55 56 59 59 56 53 54 56 57 56 56 58 60 60 59 59 58 57 57 58 59 59 58 57 56 56 56 58 58 58 58 58 57 55 54 53 53 52 51 52 51 52 54 55 56 58 60 62 64 67 70 72 73 74 76 80 86 90 89 85 80 77 75 73
33 39 44 46 46 52 65 76 79 75 65 53 49 51 52 53 53 46 36 33 35 40 45 47 48 52 55 54 51 50 50 51 51 51 53 56 59 59 59 59 59 59 59 58 58 57 57 57 56 56 56 56 55 54 52 51 51 50 50 50 50 50 50 50 50 52 53 55 57 59 61 65 68 71 73 75 75 75 76 82 92 95 88 79 74 72 73
33 36 37 39 42 48 59 71 79 80 72 58 43 36 40 48 51 49 46 44 43 41 41 42 42 45 49 53 54 51 46 44 44 46 49 52 54 55 55 55 56 57 56 56 55 56 56 55 54 53 53 53 52 50 49 48 47 47 47 49 49 49 49 49 50 50 51 52 55 58 60 62 64 64 64 66 67 65 59 59 69 78 76 71 70 74 78
27 32 34 35 39 43 51 63 71 74 74 69 53 36 31 37 43 47 50 53 52 49 44 39 37 38 42 48 50 47 42 40 41 43 45 48 49 49 48 47 47 48 48 49 49 49 50 51 52 52 50 49 48 47 45 44 44 44 45 47 47 47 48 48 47 47 49 52 55 55 53 50 47 45 45 44 44 45 45 45 47 51 54 58 65 77 87
19 25 32 37 38 38 41 51 59 63 66 70 65 51 38 31 28 32 37 41 44 47 45 40 36 34 36 41 44 44 43 42 42 44 47 49 49 48 46 44 43 43 44 45 46 46 46 47 49 50 48 44 42 41 41 41 41 42 43 44 44 44 44 44 44 45 46 47 46 43 39 36 33 31 28 23 19 20 26 31 34 37 40 43 44 50 64
18 17 22 31 37 35 31 34 42 49 55 62 66 64 56 42 31 27 27 25 27 35 43 45 44 41 39 38 39 40 41 40 41 44 47 47 45 45 44 44 44 45 45 46 47 48 47 46 47 48 46 43 40 39 39 40 40 41 42 41 40 40 40 40 40 40 38 35 33 32 30 28 25 23 20 17 18 19 20 22 29 32 37 46 44 36 37
22 17 15 20 29 33 29 25 27 33 40 47 53 60 62 55 45 37 31 25 22 29 39 45 48 48 46 43 39 38 37 37 38 41 43 43 43 44 45 45 46 47 47 47 48 48 47 46 45 46 46 43 41 40 40 40 40 41 41 40 39 39 38 38 37 35 31 28 27 26 25 21 18 16 15 12 10 12 14 18 23 26 32 44 52 50 44
22 21 17 16 20 24 24 21 20 22 27 31 36 46 56 59 52 42 33 26 22 24 31 38 44 48 49 48 44 41 39 39 40 42 44 45 46 46 46 45 46 47 47 47 46 46 45 43 43 44 44 44 42 41 41 40 40 41 40 39 39 39 37 36 35 33 30 28 26 23 21 18 15 15 14 11 7 4 5 8 11 15 19 23 27 28 27
16 20 20 18 18 19 17 16 15 15 19 22 25 32 44 52 49 41 33 27 24 24 26 32 37 41 42 43 42 41 42 43 44 45 46 47 48 47 45 44 43 42 41 41 42 42 41 40 40 41 41 41 41 42 42 43 42 41 40 39 39 38 36 34 32 29 26 24 22 20 17 16 15 15 14 11 8 7 6 5 4 6 9 11 12 12 13
11 13 17 18 20 19 17 15 15 13 13 15 17 21 29 36 38 36 31 27 25 25 27 30 33 35 37 38 40 41 42 44 45 45 45 45 46 45 43 41 40 39 38 37 38 38 38 38 39 39 39 40 42 44 45 45 44 42 40 39 38 37 36 34 31 27 23 22 21 19 17 17 18 18 18 17 16 16 14 11 10 9 10 10 12 14 16
14 12 14 16 20 22 20 18 16 15 13 13 14 16 18 21 25 28 28 26 25 26 29 32 35 37 38 39 39 40 41 41 41 41 41 41 42 41 40 40 39 38 37 36 35 35 36 37 38 39 41 43 44 45 45 44 43 41 39 38 37 36 35 34 31 27 24 23 23 22 21 20 20 21 22 22 23 24 23 19 17 16 16 17 18 18 19
19 16 14 14 17 21 21 19 17 15 14 13 13 15 17 18 20 23 25 26 26 26 26 28 31 32 33 33 34 34 34 34 35 36 37 38 39 39 39 38 37 36 35 34 34 33 34 35 37 40 42 43 43 43 42 41 40 39 37 37 36 35 35 35 32 28 25 24 23 23 23 23 23 25 25 24 23 24 24 24 23 21 20 21 22 21 21
25 24 17 13 13 15 15 14 14 15 15 16 18 20 21 21 21 23 24 25 25 24 23 23 25 25 26 26 26 26 26 27 30 32 34 35 35 35 34 34 33 34 33 33 33 33 34 35 36 38 40 41 40 39 37 36 36 36 36 35 35 35 36 35 34 31 27 24 24 25 24 23 24 25 25 24 24 25 24 24 25 26 26 26 23 20 19
31 30 25 22 22 22 21 21 21 21 23 24 25 26 26 24 22 22 23 23 23 23 23 23 23 23 23 22 22 21 23 25 28 30 31 31 31 31 31 30 30 31 31 32 32 33 34 34 35 35 36 36 36 35 34 32 33 33 34 34 35 37 37 36 34 32 28 26 28 29 27 26 26 27 26 25 25 26 26 26 26 27 29 29 26 24 26
33 33 32 32 33 32 32 32 30 29 29 29 27 26 25 24 23 22 22 23 24 24 24 23 23 23 23 23 23 24 25 26 28 29 30 30 30 30 30 29 29 29 29 29 30 30 31 32 32 32 33 33 32 32 31 30 30 31 31 32 33 35 37 36 35 32 30 30 30 31 30 30 29 28 25 24 22 21 24 27 28 28 27 27 28 30 33
29 31 32 33 33 31 31 32 33 33 32 30 27 25 24 24 23 22 23 24 24 23 23 22 22 22 22 23 25 26 27 27 28 29 30 30 30 30 30 30 29 29 29 28 28 28 28 29 30 30 31 31 30 30 30 30 29 29 30 29 29 30 32 34 34 33 33 32 31 30 31 32 31 27 23 22 21 22 23 25 26 26 26 25 25 27 28
22 23 25 28 29 27 24 24 26 27 26 25 25 24 24 24 23 22 22 21 20 20 20 20 21 21 22 23 25 26 27 28 29 30 31 31 31 31 31 31 30 30 30 30 29 29 29 29 29 30 30 30 30 29 29 29 29 29 29 29 28 28 28 29 30 32 32 33 32 31 31 32 32 30 27 24 23 23 24 24 23 24 26 27 26 27 26
15 16 17 19 21 22 21 21 21 20 20 20 21 21 22 22 21 20 19 18 17 17 18 18 20 21 22 24 25 26 28 29 30 30 31 32 32 31 31 30 30 29 29 29 30 30 30 30 30 30 30 30 30 29 29 30 30 29 29 28 28 27 27 27 28 29 31 32 33 33 33 32 32 31 29 26 23 22 23 23 24 25 27 29 31 33 33
10 11 12 13 14 16 18 19 19 19 19 19 19 18 18 18 16 16 16 16 16 17 17 18 20 22 23 24 26 27 27 28 28 28 29 29 29 29 29 28 27 27 27 27 27 28 28 28 29 28 28 28 28 29 29 30 30 29 29 28 27 27 26 26 26 28 29 31 33 33 33 34 34 34 33 32 29 26 26 27 29 29 29 29 33 38 39
9 8 9 10 11 12 13 15 16 17 17 17 17 16 16 15 15 15 15 16 17 17 18 19 21 22 24 24 25 25 25 25 25 25 25 26 26 25 25 25 25 24 24 24 24 25 25 25 26 26 26 26 26 27 27 28 28 27 27 27 27 27 26 25 26 27 28 31 33 34 35 36 38 39 39 39 37 35 33 31 29 29 31 33 35 38 40
9 9 8 7 7 7 8 9 10 11 12 13 13 14 14 14 14 15 16 17 17 18 18 19 19 20 20 21 21 21 21 21 21 21 21 21 21 21 21 21 21 21 21 21 21 22 22 22 23 23 24 25 25 26 26 26 26 26 25 25 26 26 26 26 26 27 28 30 32 34 35 37 38 40 40 40 39 39 37 33 28 27 30 33 35 36 37
9 9 9 8 7 7 6 5 5 5 5 5 6 7 8 8 9 10 12 13 14 15 15 16 16 16 17 17 17 18 18 18 19 19 19 19 19 19 19 19 19 20 20 20 21 21 22 22 23 24 24 25 26 26 26 26 26 26 25 25 26 26 27 27 27 28 28 29 30 32 33 34 35 36 38 38 39 39 40 39 37 36 37 38 39 40 41
8 8 7 7 6 6 5 4 3 2 1 1 1 2 3 4 5 6 8 9 10 11 11 12 13 14 15 15 16 16 17 18 18 18 19 19 19 20 20 20 21 21 22 22 23 23 24 24 25 26 26 26 27 27 27 28 27 27 27 27 27 28 29 29 29 30 30 31 32 32 33 34 34 35 36 37 37 38 39 40 41 41 41 42 43 45 45
7 7 7 7 7 7 7 7 7 6 5 5 5 5 6 6 7 8 9 10 10 11 11 12 13 14 14 15 16 17 17 18 18 19 19 20 21 21 21 22 22 23 23 24 25 25 25 26 26 27 27 28 28 28 28 29 29 29 29 29 30 30 30 31 32 32 33 33 34 35 35 36 36 37 37 38 38 39 40 40 40 40 40 40 41 42 42
9 9 8 9 9 9 10 10 10 10 10 10 10 10 10 11 11 12 13 14 14 15 15 16 16 17 17 18 19 19 20 21 21 22 22 23 23 24 24 24 24 25 25 25 26 26 27 27 27 28 28 28 29 30 30 30 31 32 32 32 32 32 33 33 33 34 34 35 36 37 37 38 38 39 40 40 41 41 42 43 43 43 43 42 42 42 41
Wind_Direction
232 231 231 231 231 232 233 235 237 237 236 237 239 242 244 244 246 247 246 247 249 250 247 238 223 221 226 225 229 233 233 232 230 231 236 234 230 227 225 227 230 225 219 222 228 232 237 241 242 242 241 237 235 237 238 239 239 237 236 236 235 232 234 236 241 252 259 263 266 269 272 278 283 284 282 279 275 271 266 261 258 257 252 245 243 242 240
233 232 231 231 232 233 234 235 237 237 238 239 241 242 242 243 246 247 244 244 245 245 246 244 231 224 229 228 230 235 237 236 232 231 232 230 228 226 222 224 230 228 221 220 226 232 236 238 240 241 242 241 240 240 240 242 242 241 240 238 236 236 238 239 244 251 256 261 265 268 271 275 280 283 285 283 280 277 273 268 264 264 261 255 251 249 247
234 233 233 232 232 233 234 235 236 238 239 240 240 241 241 241 242 243 242 242 242 241 244 247 239 230 229 230 232 237 239 238 234 231 231 229 227 225 222 223 227 227 223 222 224 229 233 234 234 236 237 239 240 238 237 238 238 239 242 242 241 243 245 244 247 251 255 260 264 267 270 272 276 281 284 285 284 281 278 274 270 268 266 263 259 257 255
234 233 234 233 232 233 234 235 235 237 238 239 240 240 241 242 243 242 242 242 242 240 244 248 247 240 233 229 229 232 237 240 238 233 230 230 230 228 227 227 227 225 224 223 225 230 234 233 230 234 240 240 239 237 236 236 238 239 243 244 243 245 247 247 248 252 255 257 261 264 267 270 273 277 280 283 286 286 284 281 275 271 270 267 263 260 259
233 232 233 234 233 233 234 234 233 234 237 239 240 240 241 242 243 244 245 245 243 241 242 243 243 243 238 231 226 227 231 236 239 237 231 229 230 231 231 231 230 226 223 221 223 230 237 238 235 239 244 243 241 242 241 239 239 238 240 243 243 243 246 247 248 251 254 255 259 262 265 268 270 272 276 281 285 287 286 284 281 277 274 270 264 261 261
232 231 232 234 234 233 233 232 231 233 236 238 238 239 240 241 243 246 248 248 243 236 235 236 236 238 240 235 229 226 227 231 237 240 236 231 230 231 232 233 232 227 222 220 220 225 233 239 240 241 241 239 237 238 239 239 239 238 239 240 240 240 244 247 248 249 252 255 259 260 261 264 266 268 273 277 281 283 284 286 288 286 280 274 267 262 261
232 231 231 233 234 233 232 232 232 232 233 234 237 238 239 241 243 244 245 245 241 234 231 232 232 233 236 237 233 229 228 229 232 237 238 236 235 234 233 233 231 227 224 223 222 221 224 230 235 234 231 232 233 233 235 239 242 244 245 246 245 244 244 248 250 250 251 254 256 256 256 260 263 265 267 272 277 280 282 285 289 289 283 277 270 263 260
232 231 230 232 234 234 233 233 233 232 231 232 236 238 239 240 242 242 241 242 240 236 230 228 230 232 234 236 237 234 232 230 230 233 237 238 238 238 238 236 234 230 227 227 229 227 223 225 230 229 225 227 231 232 234 239 242 246 250 252 251 250 250 253 255 256 256 256 256 256 256 259 264 266 266 267 272 277 279 282 285 286 284 281 275 266 261
231 231 231 233 234 234 233 233 234 233 231 231 234 237 237 238 239 240 241 241 241 239 234 229 228 232 234 237 239 239 237 233 229 229 232 235 237 239 239 239 237 234 230 230 234 236 234 233 233 230 226 227 231 233 234 239 244 247 250 253 253 253 255 256 257 260 263 262 260 258 257 259 264 266 266 266 268 272 275 277 280 283 284 282 277 268 261
229 231 232 233 233 233 232 233 235 235 233 230 232 236 236 235 237 240 241 241 241 240 238 233 229 230 234 237 241 242 241 237 233 229 230 232 235 236 237 237 238 238 235 233 234 238 240 241 239 235 232 232 235 238 238 241 245 246 249 254 257 258 257 254 252 254 257 258 255 250 251 257 261 261 262 263 266 269 271 272 275 278 278 276 273 267 262
227 230 231 233 233 233 232 232 234 236 235 231 230 233 235 233 235 239 240 240 240 239 239 236 232 231 233 236 240 243 243 241 237 233 232 234 235 236 236 235 236 239 239 236 236 238 240 242 243 242 240 240 241 242 243 246 248 249 251 257 260 260 258 254 253 254 256 259 258 253 254 261 262 257 254 258 262 265 267 268 270 272 273 273 272 268 263
226 229 231 233 234 233 233 232 233 235 237 235 230 230 233 233 234 237 238 238 238 238 239 238 237 236 235 236 239 242 244 244 241 238 236 237 237 237 236 235 235 238 240 239 237 238 240 242 244 245 246 247 247 247 248 251 254 256 256 258 260 259 258 257 259 262 265 267 267 267 267 269 268 259 250 252 258 260 262 264 265 267 270 270 270 269 263
224 228 230 232 233 233 233 233 233 234 236 237 233 231 232 233 233 235 237 238 238 238 239 240 240 240 239 238 239 242 243 244 243 241 238 237 238 238 236 235 234 235 239 242 241 240 241 244 246 248 250 251 252 253 253 254 257 260 261 260 260 259 258 260 262 265 268 270 271 272 272 272 271 264 250 249 255 257 257 258 258 261 266 267 267 267 264
222 225 229 232 232 233 232 233 233 234 235 237 237 234 232 231 232 233 235 237 238 238 239 239 239 239 239 240 241 243 244 244 243 242 239 237 236 237 237 235 234 232 235 240 242 242 243 244 246 247 249 251 253 256 257 258 260 262 262 261 261 261 260 261 262 263 266 268 270 271 270 270 274 270 255 247 251 256 257 257 256 257 261 264 264 264 263
220 222 226 230 231 231 232 232 233 234 235 236 238 238 235 231 230 232 233 235 238 238 238 239 238 237 237 238 239 241 243 244 244 242 240 237 235 236 236 236 236 234 233 237 241 242 243 243 244 246 248 250 252 254 257 260 260 259 259 259 262 264 263 263 264 265 266 268 270 271 271 272 276 275 263 250 248 251 255 257 257 256 258 261 262 262 263
220 221 224 229 231 230 230 231 232 234 235 236 237 239 238 234 231 231 232 233 234 236 237 237 237 236 235 235 236 236 237 240 242 242 239 236 235 236 237 237 237 237 235 235 238 240 242 244 245 246 247 249 251 253 256 258 258 257 258 260 262 264 264 265 266 267 267 268 270 271 272 274 275 277 273 265 258 255 255 255 255 255 257 257 256 258 262
221 221 223 227 229 228 228 230 232 233 236 236 236 237 239 238 233 230 229 230 231 233 236 237 237 236 234 233 234 235 235 236 238 239 239 237 235 236 237 237 239 240 239 237 238 240 242 244 246 247 249 250 252 255 256 258 259 260 262 263 264 264 264 263 264 266 266 266 267 268 270 272 274 274 274 273 272 270 267 264 262 262 263 261 258 257 258
224 222 223 224 224 224 226 229 231 233 235 237 237 237 238 238 235 230 228 228 228 230 233 236 238 238 236 234 233 236 238 238 237 237 238 239 238 237 237 238 240 242 242 241 241 241 243 245 246 249 250 252 253 255 257 259 261 262 263 264 265 265 263 260 260 262 263 264 265 266 267 270 271 270 270 271 273 274 273 269 266 266 267 268 267 264 259
224 223 223 223 222 221 223 226 229 233 235 237 238 238 238 238 236 232 229 228 228 228 230 233 236 237 238 237 235 236 238 240 241 239 237 238 240 240 239 239 240 242 243 243 243 244 245 247 249 250 252 253 254 255 257 259 260 262 263 265 267 268 267 264 264 266 266 266 266 266 266 268 269 268 267 268 269 270 269 268 268 268 269 270 270 269 265
222 222 222 223 221 218 219 223 227 232 235 235 235 236 237 237 236 233 231 230 230 229 229 231 233 235 237 238 237 237 237 239 241 241 239 239 239 240 240 241 241 241 242 244 246 247 248 248 249 250 252 253 255 258 260 262 263 264 265 267 269 271 271 270 270 271 272 272 272 270 268 267 268 268 267 267 267 268 268 268 269 270 270 269 268 269 269
219 219 220 223 221 216 216 221 225 228 232 233 232 230 229 230 233 233 232 231 232 231 229 229 231 233 235 237 238 238 238 239 240 241 242 242 239 239 243 246 246 244 244 245 247 248 249 250 249 250 252 254 257 259 261 262 263 264 264 265 266 267 267 267 267 267 268 269 270 270 269 269 269 269 269 268 269 269 268 267 267 267 267 266 264 263 263
212 214 217 221 221 216 213 216 221 224 226 228 229 227 224 225 230 233 232 230 229 229 228 227 230 232 233 235 237 239 240 240 240 240 241 242 241 243 248 249 249 250 250 248 246 246 248 250 251 253 255 256 257 259 260 261 262 262 262 263 263 263 264 264 263 263 264 264 265 266 267 267 268 267 267 266 266 266 266 266 267 267 267 266 264 260 258
202 205 210 215 218 216 212 211 215 219 222 224 226 225 224 225 225 224 224 224 223 223 225 226 227 228 230 232 235 238 238 237 236 237 238 240 243 247 250 250 249 251 253 252 248 247 250 252 254 255 256 256 258 259 261 262 263 264 265 265 265 265 265 264 264 264 264 263 263 263 264 264 264 264 263 263 262 262 262 263 263 264 264 264 264 263 261
199 201 205 209 213 212 209 208 211 215 218 221 221 220 220 219 213 205 207 214 218 219 222 223 221 221 224 228 233 235 232 230 232 234 236 240 245 247 249 250 250 251 254 253 251 252 255 257 257 257 257 258 258 260 261 263 265 267 269 270 271 271 271 271 270 269 266 263 262 261 261 261 261 260 260 260 260 260 260 259 259 260 260 260 261 261 260
198 200 203 208 211 208 205 206 209 212 214 216 215 213 214 214 210 197 193 203 212 217 219 219 216 214 219 227 232 231 226 224 228 232 234 238 243 245 246 248 249 251 254 255 255 257 260 261 261 262 262 261 260 261 262 264 265 267 269 270 271 272 273 272 271 270 268 265 263 263 262 262 261 260 260 258 257 257 257 257 258 258 257 257 257 258 258
199 200 201 208 212 207 203 204 206 208 210 211 210 211 212 211 211 203 193 198 207 213 216 215 212 211 218 226 228 225 220 220 225 230 232 236 240 243 245 247 250 252 255 257 258 260 261 263 265 266 266 265 263 262 263 265 266 268 269 271 272 272 272 271 269 268 266 266 266 267 267 266 265 264 263 261 259 258 257 256 255 254 255 255 254 255 256
200 199 199 205 211 207 202 202 204 206 207 206 206 210 213 211 210 205 195 200 209 214 214 212 210 211 218 223 220 216 216 218 222 227 230 234 238 242 245 249 252 254 257 260 261 261 262 263 265 266 266 266 265 264 265 266 267 268 269 271 271 272 272 271 269 268 268 268 269 269 269 269 268 267 267 267 266 265 263 260 257 254 253 252 251 252 253
199 197 196 201 206 205 202 202 204 206 206 203 203 206 209 209 209 206 197 199 208 212 211 208 206 208 215 220 218 215 215 218 221 225 229 233 237 241 246 249 252 255 258 260 261 260 261 264 265 264 264 265 266 266 266 267 267 268 269 270 271 272 272 271 271 271 271 271 272 271 271 271 270 270 270 270 269 268 266 261 256 255 253 250 249 250 251
198 197 197 198 201 202 201 203 208 211 208 201 199 202 204 206 210 211 209 208 211 213 213 212 211 212 216 221 223 222 218 218 222 226 229 233 237 241 245 248 251 254 258 260 260 259 262 265 265 263 263 264 265 267 267 267 267 268 269 270 271 271 272 272 272 272 273 273 274 274 273 273 272 271 272 271 271 271 268 260 253 252 250 247 245 245 245
197 198 198 199 201 204 202 203 209 215 214 208 203 201 200 204 210 216 218 219 221 221 221 221 222 223 224 227 228 226 221 222 227 231 234 236 238 241 246 250 253 256 259 261 262 262 263 264 264 264 265 265 266 266 266 266 265 266 267 268 268 269 270 272 272 273 274 275 275 275 274 273 272 271 271 272 271 272 273 267 258 250 243 241 245 246 243
194 197 200 199 201 205 206 207 211 216 218 216 213 206 200 202 208 213 219 222 224 225 225 223 221 223 227 229 228 226 225 229 234 237 240 241 243 246 249 251 253 257 259 262 264 265 265 265 265 265 266 267 266 265 264 262 262 263 264 265 267 268 270 271 272 274 275 276 277 277 276 277 278 277 276 277 276 273 273 273 263 248 237 236 239 239 236
179 191 198 201 202 204 206 210 215 220 222 220 219 216 214 210 208 211 218 222 222 222 224 225 223 224 227 228 226 225 226 231 236 241 245 247 247 249 249 250 254 258 262 264 266 268 269 268 266 265 265 265 264 262 261 261 261 262 262 264 267 269 271 272 274 277 278 280 282 283 279 279 287 291 287 279 271 268 264 252 236 229 229 226 217 215 221
171 182 193 200 205 209 209 211 217 223 225 225 225 224 224 223 223 228 235 235 226 221 223 226 227 228 230 231 232 232 233 236 241 246 247 247 247 249 252 256 259 263 266 267 266 267 269 269 266 264 263 262 261 261 261 261 261 261 262 264 267 268 270 273 276 279 281 282 286 291 290 289 297 306 301 275 249 250 255 236 216 214 222 225 226 236 245
176 183 186 190 198 207 213 217 223 227 228 229 231 231 229 228 231 237 245 250 241 228 225 228 230 232 236 240 243 244 243 245 246 246 246 248 252 256 261 264 266 267 269 268 267 267 268 266 262 260 261 262 262 262 261 260 260 261 262 264 265 266 270 273 275 278 281 282 286 294 300 302 306 314 317 303 265 248 252 246 234 229 229 232 241 255 264
171 181 187 184 185 193 202 209 216 223 227 229 234 234 232 231 234 238 243 250 251 239 231 232 234 236 240 244 247 248 250 250 250 249 251 255 260 263 265 268 270 271 270 269 267 267 267 264 259 257 260 261 260 260 260 260 261 262 263 264 266 266 268 270 272 274 276 277 279 286 291 294 299 304 307 310 309 282 252 240 236 234 232 234 241 249 251
160 172 181 188 189 192 198 201 202 209 218 224 231 234 233 233 235 238 241 248 254 248 239 237 238 240 242 244 245 247 248 249 251 254 258 261 263 265 267 270 272 271 269 267 266 265 263 260 257 256 256 256 257 259 261 262 263 263 264 265 266 266 265 267 268 270 272 273 274 278 278 274 280 290 292 290 295 297 279 247 218 216 221 224 227 229 231
142 159 170 178 184 186 191 194 191 189 197 208 218 226 230 231 233 235 239 246 250 245 237 233 233 235 236 237 239 241 245 249 254 258 262 263 264 265 267 269 269 267 265 264 263 260 258 256 255 254 254 255 257 261 263 263 263 264 264 264 263 262 262 262 262 262 267 271 271 269 270 270 273 279 281 280 287 295 292 277 257 245 240 239 239 237 235
134 144 156 166 173 175 178 183 185 181 181 191 202 210 216 220 224 229 235 240 239 234 231 229 230 232 234 236 240 244 247 251 255 258 261 264 265 266 267 267 265 263 262 261 260 257 255 253 252 252 253 255 258 261 262 263 263 263 262 262 261 260 258 259 258 257 263 270 270 267 270 272 272 274 276 276 281 288 289 282 272 265 259 254 249 246 245
142 147 156 167 175 179 180 182 181 174 174 187 199 201 203 209 215 222 230 233 230 228 228 228 231 235 238 241 244 247 249 253 257 260 263 265 266 266 265 263 260 259 260 260 259 258 255 253 252 251 252 253 256 258 259 260 260 260 260 260 260 259 257 256 255 255 260 267 271 271 272 271 271 274 276 276 276 279 279 271 263 261 261 259 257 254 252
148 153 160 166 172 178 179 176 171 168 175 189 196 197 204 215 220 222 227 231 230 230 231 231 232 236 239 241 245 249 252 256 261 263 265 265 264 262 261 259 258 258 259 259 259 258 256 255 254 253 253 254 254 254 254 255 255 256 257 257 256 256 255 254 252 252 255 262 269 270 270 269 270 272 274 272 271 272 273 267 256 248 249 253 254 248 239
134 140 143 145 149 154 155 156 160 166 174 181 186 191 201 217 226 227 229 232 232 232 233 232 232 236 239 241 244 248 251 255 259 260 259 259 258 258 258 258 258 259 259 258 258 258 256 256 256 256 256 256 256 255 254 253 253 253 253 252 251 251 251 250 249 249 252 260 267 269 269 270 272 271 269 268 268 268 266 261 254 248 246 245 240 232 229
116 121 127 132 136 137 136 140 145 150 154 162 172 184 198 213 223 228 230 231 231 233 233 231 231 233 236 238 240 243 245 248 250 251 253 254 254 255 257 257 257 257 258 257 258 258 258 259 260 260 261 261 262 261 261 260 258 257 256 254 252 251 251 250 250 250 252 256 260 262 263 268 272 271 265 259 259 261 260 257 254 249 244 240 238 235 234
113 119 128 137 141 138 134 135 140 143 150 162 176 190 203 214 222 225 225 226 227 230 232 233 234 236 237 239 241 242 244 245 247 249 251 254 255 256 257 257 257 257 258 258 258 260 261 262 263 265 266 267 268 268 268 267 265 263 262 260 258 255 254 253 253 253 254 255 256 258 263 265 265 260 252 245 243 245 249 252 250 241 231 230 235 237 234
123 128 137 147 154 155 152 149 151 153 158 171 184 196 206 214 218 219 221 223 225 226 228 232 236 239 240 242 244 245 247 248 249 250 252 254 255 256 256 256 256 256 257 257 258 258 259 261 262 264 266 267 268 269 269 269 267 266 265 263 261 259 257 256 256 255 255 254 253 256 262 262 255 247 242 240 237 235 238 244 245 237 229 228 230 232 232
134 141 147 153 160 165 166 167 168 167 169 175 185 195 204 211 215 219 225 229 231 230 230 233 237 240 243 244 245 246 247 248 248 248 249 249 250 251 251 252 252 253 253 254 254 254 254 255 256 258 260 262 264 264 265 265 265 264 263 262 262 260 259 258 257 256 256 255 252 252 253 252 246 238 234 234 231 227 229 234 235 233 234 235 233 231 233
126 140 150 155 159 159 159 161 164 168 171 175 181 189 197 205 211 217 224 229 233 234 235 236 238 240 243 243 243 243 244 244 245 245 246 246 247 247 247 247 248 248 249 249 250 251 250 250 250 252 254 256 258 260 261 261 261 261 261 261 260 260 259 259 257 255 255 255 254 252 252 251 246 240 237 237 235 230 228 229 226 224 226 230 229 227 228
96 116 133 145 152 155 155 155 158 164 171 179 185 190 196 201 204 208 215 222 228 231 234 235 236 237 239 240 240 241 241 241 241 242 242 243 243 244 244 245 245 245 246 246 247 248 249 249 249 250 252 253 254 256 257 258 258 259 260 261 261 261 260 259 257 254 252 250 249 248 248 247 245 241 238 236 234 231 229 227 226 226 226 225 221 221 224
62 72 83 95 111 127 138 145 152 160 170 179 186 193 197 201 204 208 214 220 225 229 232 234 235 236 237 239 241 243 245 246 246 246 246 245 245 245 246 247 248 248 249 250 251 251 253 253 253 253 254 255 255 255 256 256 257 258 259 261 263 264 264 262 261 258 256 254 252 250 249 247 246 243 240 236 234 233 230 226 225 229 230 226 222 224 230
37 43 48 51 57 66 75 86 101 119 138 159 177 190 201 209 215 220 224 227 230 233 235 238 240 242 245 247 248 250 251 252 253 253 253 254 255 255 256 257 258 258 258 259 259 259 260 260 260 260 259 259 260 260 260 260 261 261 261 262 262 264 264 265 264 263 262 261 260 260 259 258 257 256 254 250 248 247 245 243 244 247 248 246 245 247 252
9 11 12 13 14 14 16 22 32 46 59 99 170 204 224 234 240 243 245 246 247 248 249 251 253 255 256 256 258 259 260 260 262 263 264 264 265 266 266 265 266 265 265 264 263 262 261 261 261 262 262 262 262 263 264 265 265 265 265 264 264 264 264 264 264 264 264 264 264 264 264 264 264 265 266 265 264 263 263 262 262 262 262 262 262 263 266
335 334 331 328 325 323 320 317 314 310 305 299 292 285 278 274 269 265 263 263 262 262 263 264 264 265 266 267 267 268 268 268 268 268 268 268 269 269 269 268 268 268 268 267 267 266 265 264 263 263 263 264 264 265 266 267 267 267 267 266 265 264 264 264 264 264 263 264 264 265 266 266 266 266 267 268 269 269 269 270 270 270 270 269 269 269 270
311 309 305 302 300 299 298 297 296 294 292 289 285 281 278 276 274 273 271 271 270 270 269 268 268 268 269 270 271 272 273 273 273 272 272 271 270 269 269 268 268 267 267 268 268 269 270 270 270 269 268 268 267 267 266 267 267 268 268 267 267 266 265 264 263 263 263 263 262 263 263 264 265 266 267 267 268 269 269 270 270 270 270 269 269 269 268